Regional Weather Roundup
Issued by NWS

Home | Current Version | Previous Version | Text Only | Print | Product List | Glossary On
Versions: 1 2 3 4 5 6 7 8 9 10 11 12 13 14 15 16 17 18 19 20 21 22 23 24 25 26 27 28 29 30 31 32 33 34 35 36 37 38 39 40 41 42 43 44 45 46 47 48 49 50
000
ASUS43 KMKX 212221
RWRWI

WISCONSIN REGIONAL WEATHER ROUNDUP
NATIONAL WEATHER SERVICE MILWAUKEE/SULLIVAN WI
500 PM CDT THU AUG 21 2014

NOTE: "FAIR" INDICATES FEW OR NO CLOUDS BELOW 12,000 FEET WITH NO
SIGNIFICANT WEATHER AND/OR OBSTRUCTIONS TO VISIBILITY.

WIZ001-002-006>008-014>016-023>028-212300-
NORTHWEST WISCONSIN

CITY           SKY/WX    TMP DP  RH WIND       PRES   REMARKS
SUPERIOR ARPT  CLOUDY    62  60  96 NE14G20   29.88S
ASHLAND        CLOUDY    69  64  84 N8        29.89F
HAYWARD        PTSUNNY   74  68  81 E7        29.88R
SIREN          CLOUDY    74  69  85 SE3       29.85R
RICE LAKE      CLOUDY    74  68  80 SE5       29.88R
LADYSMITH      CLOUDY    75  69  80 SE8       29.89R
EAU CLAIRE     MOSUNNY   79  70  74 S14G21    29.84S HX  82
MENOMONIE      CLOUDY    77  70  79 SE10      29.84S
NEW RICHMOND   DRIZZLE   73  71  94 E6        29.83S
OSCEOLA        CLOUDY    74  72  93 E5        29.85R
$$

WIZ003>005-009-010-017-018-212300-
NORTH CENTRAL WISCONSIN

CITY           SKY/WX    TMP DP  RH WIND       PRES   REMARKS
WOODRUFF       CLOUDY    72  65  78 SE7       29.94R
RHINELANDER    CLOUDY    67  63  87 E12       29.95S
EAGLE RIVER    CLOUDY    69  64  86 SE8       29.95R
LAND O LAKES   CLOUDY    69  64  84 SE5       29.96S
PHILLIPS       CLOUDY    70  66  86 E7        29.91S
TOMAHAWK       CLOUDY    67  63  87 SE7       29.94S
MEDFORD        CLOUDY    69  67  92 E7        29.92R
MERRILL        CLOUDY    67  66  96 SE8       29.94S FOG
$$

WIZ029-030-035-036-043>047-212300-
CENTRAL WISCONSIN

CITY           SKY/WX    TMP DP  RH WIND       PRES   REMARKS
WAUSAU         CLOUDY    69  66  90 E8        29.92S
MOSINEE        CLOUDY    72  70  94 E7        29.93S
MARSHFIELD     CLOUDY    76  68  76 SE6       29.90S
STEVENS POINT  CLOUDY    70  67  89 E8        29.93S
WAUPACA        CLOUDY    75  71  87 CALM      29.93R
WAUTOMA        PTSUNNY   80  70  71 SE6       29.91S HX  83
WISC RAPIDS    CLOUDY    77  69  76 S7        29.91S
CAMP DOUGLAS   PTSUNNY   77  75  92 SE6       29.89R
$$

WIZ011>013-019>022-031-037>040-048>050-212300-
NORTHEAST WISCONSIN

CITY           SKY/WX    TMP DP  RH WIND       PRES   REMARKS
ANTIGO         CLOUDY    65  64  97 SE13      29.97R FOG
STURGEON BAY   CLOUDY    66  61  82 E7        29.96S
GREEN BAY      PTSUNNY   70  65  84 SE7       29.94S
MANITOWOC      CLOUDY    68  65  90 SE5       29.94S
APPLETON       PTSUNNY   72  66  83 SE6       29.93S
CLINTONVILLE   CLOUDY    70  64  83 E5        29.93R
OSHKOSH        CLOUDY    72  69  90 E7        29.92S
$$

WIZ032>034-041-042-053>061-212300-
SOUTHWEST WISCONSIN

CITY           SKY/WX    TMP DP  RH WIND       PRES   REMARKS
LA CROSSE      MOSUNNY   83  72  69 S10       29.84R HX  88
SPARTA         PTSUNNY   79  69  70 S10       29.88R HX  82
VIROQUA        MOCLDY    80  74  84 S6        29.89R HX  84
BOSCOBEL       PTSUNNY   83  72  69 S3        29.85S HX  88
PRAIRIE DU CHI PTSUNNY   77  71  79 S6        29.85R
PLATTEVILLE    FAIR      76  73  90 S10       29.90R
$$

WIZ056-057-062-063-064-067-068-212300-
SOUTH CENTRAL WISCONSIN

CITY           SKY/WX    TMP DP  RH WIND       PRES   REMARKS
BARABOO/DELLS  CLOUDY    76  69  79 SE5       29.89S
LONE ROCK      CLOUDY    84  74  71 SE6       29.86F HX  91
WATERTOWN      CLOUDY    75  72  91 S6        29.91S
MADISON        CLOUDY    77  71  82 S10       29.89S
MIDDLETON      CLOUDY    78  74  87 S9        29.89F HX  81
MONROE         PTSUNNY   77  72  83 S8        29.90S
JANESVILLE     PTSUNNY   75  73  94 S9        29.89F
$$

WIZ051-052-058>065-066-070>072-212300-
SOUTHEAST WISCONSIN

CITY           SKY/WX    TMP DP  RH WIND       PRES   REMARKS
MILWAUKEE      PTSUNNY   77  71  82 S8        29.92S
WAUKESHA       PTSUNNY   75  68  78 S8        29.93S
MILWAUKEE/TIMM CLOUDY    73  68  83 SE6       29.93F
RACINE         CLOUDY    76  69  79 S9        29.94F
BURLINGTON     CLOUDY    74  71  90 S9        29.91F
KENOSHA        CLOUDY    75  72  90 S12       29.93S
FOND DU LAC    PTSUNNY   77  69  76 S8        29.92R
SHEBOYGAN      CLOUDY    70  67  90 SE5       29.94R FOG
WEST BEND      CLOUDY    72  66  83 S6        29.93S
JUNEAU         CLOUDY    75  46  35 S7        29.93S
$$

LSZ147-162-212300-
LAKE SUPERIOR

STATION/POSITION TIME  TEMP    WIND        PRES    WAVE
                       AIR SEA DIR/SP/G            HT/PER
                 (UTC) (F)     (DEG/KT/KT) (MB)    (FT/S)
W MID LAKE BUOY  2150   59 59   60/ 14/ 17 1012.6F   2/ 4
DEVILS ISLAND    2200   62      60/ 14/ 16 1012.5
PORT WING        2100   65      30/ 16/ 19 1011.5F
SAXON HARBOR     2100   66      70/  3/  6 1011.9F
$$

LMZ867-665-643>646-212300-
LAKE MICHIGAN

STATION/POSITION TIME  TEMP    WIND        PRES    WAVE
                       AIR SEA DIR/SP/G            HT/PER
                 (UTC) (F)     (DEG/KT/KT) (MB)    (FT/S)
N MID LAKE BUOY  2150   65 65   60/  8/ 10 1014.2F   0
NORTHPORT PIER   2100   66      90/  5/  7 1014.6F
SISTER BAY       2141   70     130/  9/ 11   N/A
KEWAUNEE LAKESHO 2200   65      60/  3/  5 1013.2F
SHEBOYGAN LAKESH 2200   67 67  160/  4/  5 1014.2R
ATWATER BUOY     2200   70     140/  8/ 10 1014.3F
MILWAUKEE LAKESH 2200   70     150/  6/  7   N/A
S MID LAKE BUOY  2150   69 69  170/  8/ 10 1013.6F   1
KENOSHA   LAKESH 2200   72     180/  8/ 12 1012.9S
$$

TC  - TEMPERATURE IN CELSIUS
VSB - VISIBILITY IN STATUTE MILES
WCI - WIND CHILL INDEX
HX  - HEAT INDEX




USA.gov is the U.S. government's official web portal to all federal, state and local government web resources and services.